User: anonymous   Login
Location: Bangkok
(13.7500°N, 100.5170°E)
Time: 23:08:47
(UTC+07:00)
Language:

Cosmos 1898 Rocket - Orbit

View from above orbital plane
View from above orbital plane
View from above satellite
View from above satellite

Ground track
Ground track

The orbit data is extracted from the following two-line orbital elements,

1 18586U 87098B   14297.47110427  .00000316  00000-0  11650-3 0  1582
2 18586 074.0069 275.1407 0021314 203.8959 301.6650 14.36476174408533
Epoch (UTC): 24 October 2014 11:18:23
Eccentricity: 0.0021314
inclination: 74.0069°
perigee height: 755 km
apogee height: 785 km
right ascension of ascending node: 275.1407°
argument of perigee: 203.8959°
revolutions per day: 14.36476174
mean anomaly at epoch: 301.6650°
orbit number at epoch: 40853

The dashed part of the orbit path shows where the satellite is in the earth's shadow,  

DLR